Regional Weather Roundup
Issued by NWS

Home | Current Version | Previous Version | Graphics & Text | Print | Product List | Glossary On
Versions: 1 2 3 4 5 6 7 8 9 10 11 12 13 14 15 16 17 18 19 20 21 22 23 24 25 26 27 28 29 30 31 32 33 34 35 36 37 38 39 40 41 42 43 44 45 46 47 48 49 50
000
ASUS43 KLMK 270802
RWRKY
KENTUCKY REGIONAL WEATHER ROUNDUP
NATIONAL WEATHER SERVICE LOUISVILLE KY
400 AM EDT SAT AUG 27 2016

NOTE "FAIR" INDICATES FEW OR NO CLOUDS BELOW 12,000 FEET
WITH NO SIGNIFICANT WEATHER AND/OR OBSTRUCTIONS TO VISIBILITY.

KYZ001>023-026-027-061>063-070>075-270900-
WESTERN AND SOUTH CENTRAL KENTUCKY

CITY           SKY/WX    TMP DP  RH WIND       PRES   REMARKS
PADUCAH        CLOUDY    73  70  90 NE5       30.02F
HENDERSON      CLOUDY    72  68  88 CALM      30.02F
OWENSBORO      LGT RAIN  73  73 100 NE5       30.04F
HOPKINSVILLE   MOCLDY    72  71  96 E3        30.03F
BOWLING GREEN  CLOUDY    74  70  87 CALM      30.07F
GLASGOW        PTCLDY    74  74 100 CALM      30.08F
$$

KYZ024-025-028>034-038-045-046-053-270900-
NORTH CENTRAL KENTUCKY

CITY           SKY/WX    TMP DP  RH WIND       PRES   REMARKS
LOUISVILLE/SDF CLOUDY    78  71  79 CALM      30.06F
LOUISVILLE/LOU CLOUDY    77  72  84 CALM      30.07F
FORT KNOX      CLOUDY    74  72  93 W8        30.08S
$$

KYZ035>037-039>044-047>052-055>060-089>105-270900-
NORTHEAST KENTUCKY

CITY           SKY/WX    TMP DP  RH WIND       PRES   REMARKS
LEXINGTON      CLOUDY    73  69  87 SE3       30.11F
COVINGTON      CLOUDY    75  72  90 CALM      30.10F
FRANKFORT      CLOUDY    74  70  87 CALM      30.09F
$$

KYZ054-064>069-076>088-106>120-270900-
SOUTHEAST KENTUCKY

CITY           SKY/WX    TMP DP  RH WIND       PRES   REMARKS
JACKSON        CLEAR     73  69  87 CALM      30.13F
LONDON         CLOUDY    71  67  87 NE3       30.11F
SOMERSET       CLOUDY    68  68 100 CALM      30.11F
MIDDLESBORO    CLEAR     69  69 100 CALM      30.13F
MONTICELLO     MOSUNNY  N/A N/A N/A W7        30.11F
$$





USA.gov is the U.S. government's official web portal to all federal, state and local government web resources and services.